• In Hungary
  • List of Countries
  • For 7 days
  • Water Temperature
  • Satellite Maps
  • Weather Map
  • News
  • Weather Widgets
  • user-avatar
    Login

    Hourly Weather Keszthely

    Today, 18 June, Monday

    Time Temperature Precipitation Wind Pressure Humidity
    00:00 +19°C° 0 mm 3 mps 750 mmHg 74%
    01:00 +20°C° 0 mm 4 mps 750 mmHg 69%
    02:00 +19°C° 0 mm 4 mps 750 mmHg 70%
    03:00 +19°C° 0 mm 4 mps 750 mmHg 71%
    04:00 +19°C° 0 mm 4 mps 750 mmHg 72%
    05:00 +20°C° 0 mm 5 mps 751 mmHg 71%
    06:00 +21°C° 0 mm 6 mps 751 mmHg 70%
    07:00 +22°C° 0 mm 7 mps 751 mmHg 68%
    08:00 +23°C° 0 mm 7 mps 751 mmHg 64%
    09:00 +24°C° 0 mm 8 mps 751 mmHg 60%
    10:00 +27°C° 0 mm 8 mps 751 mmHg 56%
    11:00 +27°C° 0.1 mm 8 mps 751 mmHg 55%
    12:00 +27°C° 0.1 mm 8 mps 751 mmHg 53%
    13:00 +28°C° 0.1 mm 8 mps 751 mmHg 52%
    14:00 +28°C° 0.1 mm 8 mps 751 mmHg 53%
    15:00 +28°C° 0.1 mm 8 mps 751 mmHg 54%
    16:00 +28°C° 0.1 mm 7 mps 751 mmHg 56%
    17:00 +26°C° 0 mm 7 mps 751 mmHg 60%
    18:00 +24°C° 0 mm 6 mps 751 mmHg 64%
    19:00 +23°C° 0 mm 5 mps 752 mmHg 68%
    20:00 +22°C° 0 mm 5 mps 752 mmHg 67%
    21:00 +22°C° 0 mm 5 mps 752 mmHg 67%
    22:00 +21°C° 0 mm 5 mps 753 mmHg 67%
    23:00 +21°C° 0 mm 5 mps 753 mmHg 68%

    Tomorrow, 19 June, Tuesday

    Time Temperature Precipitation Wind Pressure Humidity
    00:00 +21°C° 0 mm 5 mps 753 mmHg 69%
    01:00 +20°C° 0 mm 5 mps 753 mmHg 70%
    02:00 +20°C° 0 mm 5 mps 753 mmHg 71%
    03:00 +19°C° 0 mm 6 mps 753 mmHg 72%
    04:00 +19°C° 0 mm 6 mps 753 mmHg 72%
    05:00 +20°C° 0 mm 6 mps 754 mmHg 71%
    06:00 +21°C° 0 mm 7 mps 754 mmHg 69%
    07:00 +22°C° 0 mm 7 mps 754 mmHg 67%
    08:00 +23°C° 0 mm 7 mps 754 mmHg 63%
    09:00 +24°C° 0 mm 7 mps 754 mmHg 59%
    10:00 +26°C° 0 mm 8 mps 754 mmHg 55%
    11:00 +27°C° 0 mm 7 mps 754 mmHg 54%
    12:00 +28°C° 0 mm 7 mps 754 mmHg 53%
    13:00 +28°C° 0 mm 7 mps 754 mmHg 51%
    14:00 +28°C° 0 mm 7 mps 753 mmHg 53%
    15:00 +28°C° 0 mm 7 mps 753 mmHg 54%
    16:00 +28°C° 0 mm 6 mps 753 mmHg 55%
    17:00 +27°C° 0 mm 5 mps 753 mmHg 60%
    18:00 +26°C° 0 mm 5 mps 753 mmHg 64%
    19:00 +25°C° 0 mm 4 mps 753 mmHg 69%
    20:00 +23°C° 0 mm 4 mps 754 mmHg 70%
    21:00 +23°C° 0 mm 4 mps 754 mmHg 70%
    22:00 +22°C° 0 mm 4 mps 754 mmHg 71%
    23:00 +21°C° 0.1 mm 4 mps 755 mmHg 74%

    Day after tomorrow, 20 June, Wednesday

    Time Temperature Precipitation Wind Pressure Humidity
    00:00 +21°C° 0.1 mm 4 mps 755 mmHg 77%
    01:00 +20°C° 0.1 mm 4 mps 755 mmHg 79%
    02:00 +20°C° 0.3 mm 3 mps 755 mmHg 82%
    03:00 +19°C° 0.3 mm 3 mps 755 mmHg 85%
    04:00 +19°C° 0.3 mm 3 mps 755 mmHg 89%
    05:00 +20°C° 0.2 mm 4 mps 755 mmHg 86%
    06:00 +21°C° 0.2 mm 4 mps 755 mmHg 84%
    07:00 +22°C° 0.2 mm 4 mps 755 mmHg 82%
    08:00 +25°C° 0.1 mm 4 mps 755 mmHg 76%
    09:00 +26°C° 0.1 mm 4 mps 755 mmHg 70%
    10:00 +28°C° 0.1 mm 4 mps 755 mmHg 63%
    11:00 +29°C° 0.7 mm 4 mps 755 mmHg 63%
    12:00 +29°C° 0.7 mm 4 mps 755 mmHg 62%
    13:00 +30°C° 0.7 mm 3 mps 754 mmHg 61%
    14:00 +30°C° 0.6 mm 3 mps 754 mmHg 62%
    15:00 +30°C° 0.6 mm 2 mps 754 mmHg 62%
    16:00 +29°C° 0.6 mm 2 mps 754 mmHg 63%
    17:00 +28°C° 0 mm 1 mps 754 mmHg 67%
    18:00 +28°C° 0 mm 1 mps 753 mmHg 71%
    19:00 +25°C° 0 mm 0 mps 753 mmHg 74%
    20:00 +23°C° 0 mm 0 mps 753 mmHg 77%
    21:00 +24°C° 0 mm 1 mps 754 mmHg 80%
    22:00 +23°C° 0 mm 1 mps 754 mmHg 82%
    23:00 +23°C° 0 mm 1 mps 754 mmHg 84%

    21 June, Thursday

    Time Temperature Precipitation Wind Pressure Humidity
    00:00 +22°C° 0 mm 1 mps 753 mmHg 85%
    01:00 +22°C° 0 mm 1 mps 753 mmHg 87%
    02:00 +20°C° 0 mm 0 mps 753 mmHg 87%
    03:00 +19°C° 0 mm 0 mps 753 mmHg 88%
    04:00 +19°C° 0 mm 0 mps 753 mmHg 89%
    05:00 +21°C° 0 mm 0 mps 752 mmHg 84%
    06:00 +22°C° 0 mm 0 mps 752 mmHg 79%
    07:00 +26°C° 0 mm 1 mps 752 mmHg 74%
    08:00 +27°C° 0 mm 1 mps 752 mmHg 68%
    09:00 +29°C° 0 mm 2 mps 752 mmHg 62%
    10:00 +30°C° 0 mm 2 mps 751 mmHg 56%
    11:00 +31°C° 0 mm 3 mps 751 mmHg 53%
    12:00 +33°C° 0 mm 3 mps 750 mmHg 51%
    13:00 +33°C° 0 mm 4 mps 749 mmHg 48%
    14:00 +33°C° 0 mm 4 mps 749 mmHg 48%
    15:00 +33°C° 0 mm 4 mps 748 mmHg 49%
    16:00 +33°C° 0 mm 4 mps 748 mmHg 49%
    17:00 +31°C° 0 mm 3 mps 748 mmHg 55%
    18:00 +29°C° 0 mm 3 mps 747 mmHg 62%
    19:00 +28°C° 0 mm 2 mps 747 mmHg 68%
    20:00 +26°C° 0.2 mm 2 mps 747 mmHg 71%
    21:00 +25°C° 0.2 mm 2 mps 747 mmHg 74%
    22:00 +24°C° 0.2 mm 2 mps 747 mmHg 77%
    23:00 +23°C° 0.7 mm 2 mps 747 mmHg 80%

    22 June, Friday

    Time Temperature Precipitation Wind Pressure Humidity
    00:00 +23°C° 0.7 mm 2 mps 747 mmHg 84%
    01:00 +21°C° 0.7 mm 2 mps 747 mmHg 87%
    02:00 +20°C° 0.4 mm 3 mps 748 mmHg 87%
    03:00 +19°C° 0.4 mm 5 mps 748 mmHg 88%
    04:00 +18°C° 0.4 mm 7 mps 748 mmHg 88%
    05:00 +17°C° 0.1 mm 8 mps 748 mmHg 83%
    06:00 +16°C° 0.1 mm 8 mps 749 mmHg 79%
    07:00 +15°C° 0.1 mm 9 mps 749 mmHg 74%
    08:00 +13°C° 0.5 mm 9 mps 750 mmHg 73%
    09:00 +12°C° 0.5 mm 9 mps 751 mmHg 72%
    10:00 +11°C° 0.5 mm 9 mps 752 mmHg 72%
    11:00 +10°C° 0.8 mm 8 mps 753 mmHg 76%
    12:00 +10°C° 0.8 mm 6 mps 753 mmHg 81%
    13:00 +9°C° 0.8 mm 5 mps 754 mmHg 86%
    14:00 +11°C° 1 mm 4 mps 754 mmHg 86%
    15:00 +11°C° 1 mm 3 mps 754 mmHg 87%
    16:00 +12°C° 1 mm 1 mps 754 mmHg 88%
    17:00 +12°C° 0.3 mm 2 mps 754 mmHg 89%
    18:00 +12°C° 0.3 mm 2 mps 754 mmHg 91%
    19:00 +11°C° 0.3 mm 3 mps 754 mmHg 92%
    20:00 +10°C° 0 mm 3 mps 754 mmHg 93%
    21:00 +9°C° 0 mm 3 mps 755 mmHg 95%
    22:00 +9°C° 0 mm 3 mps 755 mmHg 96%
    23:00 +8°C° 0 mm 3 mps 755 mmHg 95%

    23 June, Saturday

    Time Temperature Precipitation Wind Pressure Humidity
    00:00 +8°C° 0 mm 2 mps 755 mmHg 94%
    01:00 +8°C° 0 mm 2 mps 755 mmHg 94%
    02:00 +8°C° 0 mm 2 mps 755 mmHg 93%
    03:00 +8°C° 0 mm 2 mps 755 mmHg 92%
    04:00 +9°C° 0 mm 1 mps 755 mmHg 90%
    05:00 +10°C° 0 mm 2 mps 755 mmHg 85%
    06:00 +13°C° 0 mm 2 mps 755 mmHg 79%
    07:00 +14°C° 0 mm 2 mps 755 mmHg 74%
    08:00 +16°C° 0 mm 3 mps 755 mmHg 66%
    09:00 +18°C° 0 mm 3 mps 754 mmHg 59%
    10:00 +20°C° 0 mm 3 mps 754 mmHg 52%
    11:00 +20°C° 0 mm 3 mps 754 mmHg 50%
    12:00 +21°C° 0 mm 3 mps 753 mmHg 49%
    13:00 +21°C° 0 mm 2 mps 753 mmHg 47%
    14:00 +21°C° 0 mm 2 mps 753 mmHg 47%
    15:00 +21°C° 0 mm 2 mps 753 mmHg 48%
    16:00 +21°C° 0 mm 2 mps 753 mmHg 48%
    17:00 +21°C° 0 mm 1 mps 753 mmHg 53%
    18:00 +20°C° 0 mm 1 mps 753 mmHg 59%
    19:00 +19°C° 0 mm 1 mps 753 mmHg 64%
    20:00 +16°C° 0 mm 1 mps 753 mmHg 67%
    21:00 +15°C° 0 mm 1 mps 754 mmHg 70%
    22:00 +14°C° 0 mm 1 mps 754 mmHg 73%
    23:00 +13°C° 0 mm 1 mps 754 mmHg 73%
    Show more